TimeCST,TemperatureF,Dew PointF,Humidity,Sea Level PressureIn,VisibilityMPH,Wind Direction,Wind SpeedMPH,Gust SpeedMPH,PrecipitationIn,Events,Conditions,WindDirDegrees,DateUTC
12:10 AM,-6.2,-11.2,79,30.25,10.0,WNW,5.8,-,N/A,,Clear,300,2013-01-22 06:10:00
12:30 AM,-6.3,-11.2,79,30.25,10.0,WNW,6.9,-,N/A,,Clear,290,2013-01-22 06:30:00
12:50 AM,-6.3,-11.2,79,30.25,10.0,West,6.9,-,N/A,,Clear,280,2013-01-22 06:50:00
1:09 AM,-6.3,-10.8,81,30.26,10.0,WNW,6.9,-,N/A,,Clear,290,2013-01-22 07:09:00
1:30 AM,-6.7,-11.2,81,30.26,10.0,West,6.9,-,N/A,,Clear,280,2013-01-22 07:30:00
1:50 AM,-6.2,-11.2,79,30.26,10.0,WNW,6.9,-,N/A,,Clear,290,2013-01-22 07:50:00
2:10 AM,-6.3,-11.0,80,30.26,10.0,WNW,5.8,-,N/A,,Clear,300,2013-01-22 08:10:00
2:29 AM,-6.3,-11.0,80,30.27,10.0,WNW,6.9,-,N/A,,Clear,290,2013-01-22 08:29:00
2:49 AM,-6.2,-10.8,80,30.27,10.0,WNW,5.8,-,N/A,,Clear,300,2013-01-22 08:49:00
3:10 AM,-6.2,-10.7,81,30.27,10.0,NW,8.1,-,N/A,,Clear,310,2013-01-22 09:10:00
3:29 AM,-5.8,-10.3,81,30.26,10.0,NW,9.2,-,N/A,,Clear,310,2013-01-22 09:29:00
3:50 AM,-5.6,-10.5,79,30.26,10.0,NW,9.2,-,N/A,,Clear,310,2013-01-22 09:50:00
4:10 AM,-5.8,-10.5,80,30.25,10.0,NW,8.1,-,N/A,,Clear,320,2013-01-22 10:10:00
4:30 AM,-6.0,-11.0,79,30.25,10.0,NW,9.2,-,N/A,,Clear,310,2013-01-22 10:30:00
4:50 AM,-6.2,-11.2,79,30.26,10.0,NW,10.4,-,N/A,,Clear,310,2013-01-22 10:50:00
5:10 AM,-6.5,-11.2,80,30.26,10.0,NW,9.2,-,N/A,,Clear,310,2013-01-22 11:10:00
5:50 AM,-6.7,-12.1,77,30.27,10.0,NNW,8.1,-,N/A,,Clear,340,2013-01-22 11:50:00
6:10 AM,-7.2,-12.6,77,30.27,10.0,NW,9.2,-,N/A,,Clear,320,2013-01-22 12:10:00
6:30 AM,-7.6,-13.0,77,30.28,10.0,NNW,9.2,-,N/A,,Clear,330,2013-01-22 12:30:00
6:50 AM,-7.6,-13.0,77,30.28,10.0,NW,8.1,-,N/A,,Clear,320,2013-01-22 12:50:00
7:09 AM,-8.0,-13.0,79,30.29,10.0,NW,8.1,-,N/A,,Clear,310,2013-01-22 13:09:00
7:30 AM,-8.0,-13.0,79,30.30,10.0,NW,6.9,-,N/A,,Clear,310,2013-01-22 13:30:00
7:49 AM,-8.0,-13.0,79,30.30,10.0,NW,9.2,-,N/A,,Clear,310,2013-01-22 13:49:00
8:10 AM,-7.6,-12.8,78,30.30,10.0,NW,8.1,-,N/A,,Clear,310,2013-01-22 14:10:00
8:29 AM,-6.9,-12.6,76,30.30,10.0,NNW,8.1,-,N/A,,Clear,330,2013-01-22 14:29:00
8:50 AM,-7.2,-13.0,76,30.30,10.0,NNW,9.2,-,N/A,,Clear,330,2013-01-22 14:50:00
9:09 AM,-6.7,-12.3,77,30.30,10.0,WNW,8.1,-,N/A,,Clear,300,2013-01-22 15:09:00
9:30 AM,-5.4,-11.4,76,30.31,10.0,WNW,10.4,-,N/A,,Clear,300,2013-01-22 15:30:00
9:49 AM,-4.9,-10.8,76,30.31,10.0,WNW,9.2,-,N/A,,Clear,290,2013-01-22 15:49:00
10:10 AM,-3.5,-10.1,73,30.33,10.0,WNW,8.1,-,N/A,,Clear,300,2013-01-22 16:10:00
10:30 AM,-2.4,-9.4,72,30.33,10.0,WNW,6.9,-,N/A,,Clear,290,2013-01-22 16:30:00
10:50 AM,-1.5,-9.0,70,30.33,10.0,West,5.8,-,N/A,,Clear,280,2013-01-22 16:50:00
11:09 AM,-0.4,-8.7,68,30.32,10.0,WNW,5.8,-,N/A,,Clear,290,2013-01-22 17:09:00
11:30 AM,0.7,-8.0,67,30.32,10.0,WNW,6.9,-,N/A,,Clear,300,2013-01-22 17:30:00
11:50 AM,1.2,-7.8,66,30.32,10.0,West,6.9,-,N/A,,Clear,280,2013-01-22 17:50:00
12:09 PM,1.4,-8.1,64,30.30,10.0,WNW,6.9,-,N/A,,Clear,300,2013-01-22 18:09:00
12:30 PM,2.3,-7.8,63,30.30,10.0,WNW,9.2,-,N/A,,Clear,290,2013-01-22 18:30:00
12:50 PM,3.2,-7.1,62,30.30,10.0,WNW,8.1,-,N/A,,Clear,290,2013-01-22 18:50:00
1:10 PM,3.6,-7.2,61,30.30,10.0,WNW,10.4,-,N/A,,Clear,290,2013-01-22 19:10:00
1:30 PM,3.6,-6.9,62,30.29,10.0,West,10.4,-,N/A,,Scattered Clouds,260,2013-01-22 19:30:00
1:49 PM,3.9,-6.2,63,30.29,10.0,West,11.5,17.3,N/A,,Scattered Clouds,270,2013-01-22 19:49:00
2:10 PM,3.9,-6.5,62,30.29,10.0,WNW,11.5,-,N/A,,Scattered Clouds,290,2013-01-22 20:10:00
2:30 PM,4.3,-6.3,61,30.29,10.0,West,9.2,-,N/A,,Scattered Clouds,280,2013-01-22 20:30:00
2:49 PM,4.3,-6.7,60,30.29,10.0,West,10.4,-,N/A,,Scattered Clouds,280,2013-01-22 20:49:00
3:10 PM,5.0,-6.3,60,30.29,10.0,West,9.2,-,N/A,,Scattered Clouds,270,2013-01-22 21:10:00
3:30 PM,5.0,-6.9,58,30.28,10.0,West,8.1,-,N/A,,Mostly Cloudy,280,2013-01-22 21:30:00
3:50 PM,4.6,-6.9,59,30.28,10.0,West,9.2,-,N/A,,Mostly Cloudy,260,2013-01-22 21:50:00
4:09 PM,3.9,-6.9,61,30.27,10.0,WNW,8.1,-,N/A,,Overcast,290,2013-01-22 22:09:00
4:30 PM,3.2,-6.7,63,30.28,10.0,WNW,8.1,-,N/A,,Scattered Clouds,290,2013-01-22 22:30:00
4:49 PM,2.8,-6.5,65,30.27,10.0,WNW,5.8,-,N/A,,Clear,300,2013-01-22 22:49:00
5:10 PM,2.1,-6.7,67,30.27,10.0,WNW,5.8,-,N/A,,Clear,290,2013-01-22 23:10:00
5:30 PM,2.3,-5.8,69,30.27,10.0,West,5.8,-,N/A,,Clear,280,2013-01-22 23:30:00
5:50 PM,3.2,-5.6,67,30.28,10.0,West,5.8,-,N/A,,Clear,280,2013-01-22 23:50:00
6:09 PM,3.6,-5.6,66,30.27,10.0,WNW,6.9,-,N/A,,Mostly Cloudy,290,2013-01-23 00:09:00
6:30 PM,3.7,-5.6,65,30.27,10.0,WNW,6.9,-,N/A,,Overcast,290,2013-01-23 00:30:00
6:50 PM,3.7,-5.4,66,30.27,10.0,WNW,4.6,-,N/A,,Overcast,290,2013-01-23 00:50:00
7:10 PM,3.9,-4.9,67,30.26,10.0,WNW,4.6,-,N/A,,Overcast,290,2013-01-23 01:10:00
7:50 PM,4.1,-4.7,67,30.26,10.0,West,3.5,-,N/A,,Overcast,270,2013-01-23 01:50:00
8:10 PM,4.5,-4.4,67,30.25,10.0,WSW,3.5,-,N/A,,Overcast,250,2013-01-23 02:10:00
8:29 PM,4.6,-4.0,67,30.25,10.0,SW,4.6,-,N/A,,Overcast,230,2013-01-23 02:29:00
8:50 PM,5.0,-3.8,67,30.25,10.0,WSW,4.6,-,N/A,,Overcast,250,2013-01-23 02:50:00
9:10 PM,5.2,-3.3,68,30.24,10.0,WSW,4.6,-,N/A,,Overcast,240,2013-01-23 03:10:00
9:29 PM,5.7,-3.1,67,30.25,10.0,WSW,4.6,-,N/A,,Overcast,240,2013-01-23 03:29:00
9:50 PM,5.9,-2.7,68,30.24,10.0,WSW,6.9,-,N/A,,Overcast,240,2013-01-23 03:50:00
10:09 PM,6.3,-2.6,67,30.25,10.0,WSW,5.8,-,N/A,,Overcast,240,2013-01-23 04:09:00
10:49 PM,6.4,-2.4,67,30.24,10.0,SW,5.8,-,N/A,,Overcast,230,2013-01-23 04:49:00
11:09 PM,6.6,-1.8,68,30.23,10.0,SW,4.6,-,N/A,,Overcast,220,2013-01-23 05:09:00
11:30 PM,6.8,-1.8,68,30.22,10.0,SSW,6.9,-,N/A,,Overcast,210,2013-01-23 05:30:00
11:49 PM,6.8,-1.3,69,30.22,10.0,SSW,5.8,-,N/A,,Overcast,210,2013-01-23 05:49:00